User: anonymous   Login
Location: Norwich
(52.6280°N, 1.3030°E)
Time: 12:02:15
(UTC+01:00)
Language:

ATLAS 5 CENTAUR R/B - Orbit

View from above orbital plane
View from above orbital plane
View from above satellite
View from above satellite

Ground track
Ground track

The orbit data is extracted from the following two-line orbital elements,

1 32379U 07060B   18096.70305373 0.00000700  00000-0  21956-3 0    05
2 32379  60.8901 325.7751 5104030 344.7220   4.2932  5.39632725    07
Epoch (UTC): 06 April 2018 16:52:23
Eccentricity: 0.5104030
inclination: 60.8901°
perigee height: 344 km
apogee height: 14359 km
right ascension of ascending node: 325.7751°
argument of perigee: 344.7220°
revolutions per day: 5.39632725
mean anomaly at epoch: 4.2932°
orbit number at epoch: 0

The dashed part of the orbit path shows where the satellite is in the earth's shadow,  

DLR